Location: High Cliff State Park
(44.1557°N, 88.2948°W)
Time: 22:06:05
(UTC-05:00)

Amateur Radio Satellites - All Passes

Search period start: 28 August 2015 21:36
Search period end: 29 August 2015 21:36
Location: High Cliff State Park, 44.1557°N, 88.2948°W

Satellite Date Start Highest point End Downlink Frequencies (MHz)
Time Altitude Azimuth
AAUSAT CUBESAT 2 28 Aug 21:38:23 21:42:19 37° 263° (W) 21:46:14 437.432
ESTCUBE 1 28 Aug 21:50:01 21:51:08 11° 60° (ENE) 21:52:28 437.505/2401.250
CUTE 1.7 + AOD 2 28 Aug 21:53:04 21:55:46 16° 270° (W) 21:58:19 437.475
50 SAT 28 Aug 21:57:40 22:00:14 17° 66° (ENE) 22:02:56 437.505
DX 1 28 Aug 22:05:27 22:09:13 30° 68° (ENE) 22:13:04 434.975-435.025
AISAT 28 Aug 22:13:33 22:17:06 25° 66° (ENE) 22:20:45 437.250
UNISAT 6 28 Aug 22:16:44 22:18:55 14° 87° (E) 22:21:18 437.425
Oscar 11 28 Aug 22:19:15 22:23:10 31° 265° (W) 22:27:04 145.826/435.025
HO-68 28 Aug 22:19:31 22:24:19 18° 273° (W) 22:28:47 435.675
UKube-1 28 Aug 22:23:19 22:27:22 42° 71° (ENE) 22:31:28 .
CUBEBUG 1 28 Aug 22:25:37 22:28:40 20° 65° (ENE) 22:31:50 437.445
CINEMA 3 28 Aug 22:27:20 22:29:53 14° 274° (W) 22:32:15 145.822/145.860
DELFI C3 28 Aug 22:27:36 22:31:21 35° 263° (W) 22:35:06 145.870
HUMSAT D 28 Aug 22:31:57 22:36:16 87° 257° (WSW) 22:40:38 437.325/437.525
CUBEBUG 2 28 Aug 22:39:51 22:43:22 21° 270° (W) 22:46:50 437.445
Cosmos 2491 28 Aug 22:41:53 22:48:31 24° 279° (W) 22:54:49 435.465 / 435.565
VELOX 1 28 Aug 22:42:05 22:46:16 45° 71° (ENE) 22:50:30 145.980
Cosmos 2504 28 Aug 22:42:50 22:48:56 25° 81° (E) 22:55:34 435.465 / 435.565
TIGRISAT 28 Aug 22:45:33 22:49:22 26° 93° (E) 22:53:11 435.000
YUBILEINY 28 Aug 22:50:48 22:59:17 50° 287° (WNW) 23:07:48 435.215
QB50P2 28 Aug 22:51:37 22:52:29 11° 87° (E) 22:53:36 145.880/145.840
UWE-3 28 Aug 22:54:29 22:57:45 18° 270° (W) 23:00:56 435.000/436.395/437.385
BEESAT 3 28 Aug 22:54:34 22:55:44 11° 31° (NNE) 22:57:03 437.485
ZACube-1 28 Aug 22:55:01 22:58:38 23° 268° (W) 23:02:13 437.345
NANOSAT C BR1 28 Aug 22:55:10 22:56:20 11° 87° (E) 22:57:45 145.865
ANTELSAT 28 Aug 23:00:50 23:05:08 38° 96° (E) 23:09:21 437.575/2403.000
BEESAT 2 28 Aug 23:01:45 23:02:30 10° 30° (NNE) 23:03:24 435.950
FUNcube-1 28 Aug 23:02:21 23:05:44 20° 269° (W) 23:09:02 145.935
AUBIESAT-1 28 Aug 23:06:08 23:09:26 24° 98° (E) 23:12:34 437.475
QB50P1 28 Aug 23:06:12 23:08:43 15° 90° (E) 23:11:22 145.935-145.965
M-CUBED/EXP-1 PRIME 28 Aug 23:07:48 23:11:27 30° 100° (E) 23:14:51 437.505
ESTCUBE 1 28 Aug 23:22:51 23:27:22 90° 253° (WSW) 23:31:53 437.505/2401.250
50 SAT 28 Aug 23:30:42 23:34:29 41° 262° (W) 23:38:16 437.505
DX 1 28 Aug 23:41:48 23:45:29 26° 265° (W) 23:49:08 434.975-435.025
RS-15 28 Aug 23:44:48 23:55:18 37° 29° (NNE) 00:06:20 29.354- 29.394
AISAT 28 Aug 23:49:31 23:53:32 34° 264° (W) 23:57:34 437.250
UNISAT 6 28 Aug 23:51:39 23:56:16 66° 286° (WNW) 00:00:44 437.425
TISAT 1 28 Aug 23:51:49 23:55:23 28° 68° (ENE) 23:59:02 437.305
UKube-1 29 Aug 00:00:35 00:03:43 19° 268° (W) 00:06:45 .
CUBEBUG 1 29 Aug 00:00:38 00:04:45 43° 262° (W) 00:08:54 437.445
POLYITAN 1 29 Aug 00:04:34 00:08:53 66° 101° (E) 00:13:10 437.675
POPSAT HIP 1 29 Aug 00:08:34 00:12:54 72° 103° (ESE) 00:17:11 437.405
SPROUT 29 Aug 00:09:11 00:13:27 73° 75° (ENE) 00:17:46 437.525
DUCHIFAT 1 29 Aug 00:12:10 00:16:29 76° 102° (ESE) 00:20:45 145.980
VELOX 1 29 Aug 00:20:00 00:23:06 18° 269° (W) 00:26:04 145.980
TIGRISAT 29 Aug 00:21:59 00:26:12 34° 291° (WNW) 00:30:15 435.000
QB50P2 29 Aug 00:24:39 00:28:58 74° 286° (WNW) 00:33:15 145.880/145.840
NANOSAT C BR1 29 Aug 00:28:26 00:32:43 71° 286° (WNW) 00:37:00 145.865
BEESAT 3 29 Aug 00:30:32 00:34:33 61° 53° (NE) 00:38:30 437.485
Cosmos 2504 29 Aug 00:32:18 00:40:22 73° 281° (W) 00:48:56 435.465 / 435.565
BUGSAT 1 29 Aug 00:34:52 00:39:09 84° 107° (ESE) 00:43:25 437.445
BEESAT 2 29 Aug 00:37:29 00:41:30 55° 51° (NE) 00:45:27 435.950
ANTELSAT 29 Aug 00:37:58 00:41:43 24° 294° (WNW) 00:45:18 437.575/2403.000
AUBIESAT-1 29 Aug 00:40:35 00:44:11 29° 298° (WNW) 00:47:29 437.475
QB50P1 29 Aug 00:40:43 00:44:55 51° 287° (WNW) 00:49:05 145.935-145.965
BEESAT 29 Aug 00:42:21 00:45:44 20° 64° (ENE) 00:49:15 436.000
M-CUBED/EXP-1 PRIME 29 Aug 00:42:41 00:46:07 25° 299° (WNW) 00:49:17 437.505
CUSAT 1 29 Aug 00:48:01 00:51:38 73° 99° (E) 00:56:30 437.405
AIST 2 29 Aug 00:50:51 00:54:03 21° 40° (NE) 00:57:18 435.215
DANDE 29 Aug 00:51:56 00:55:02 42° 93° (E) 00:59:02 436.750
YUBILEINY 29 Aug 00:57:14 00:59:02 10° 314° (NW) 01:00:11 435.215
SWISSCUBE 29 Aug 01:06:42 01:11:00 36° 69° (ENE) 01:15:22 437.505
TISAT 1 29 Aug 01:27:29 01:31:07 27° 265° (W) 01:34:43 437.305
Oscar 19 29 Aug 01:36:42 01:41:03 27° 93° (E) 01:45:27 437.125/150
SO-50 29 Aug 01:39:02 01:43:15 32° 115° (ESE) 01:47:37 436.795
POLYITAN 1 29 Aug 01:42:03 01:44:18 14° 298° (WNW) 01:46:23 437.675
ITUPSAT 1 29 Aug 01:43:01 01:47:46 72° 74° (ENE) 01:52:34 437.325
GONETS M04 29 Aug 01:44:52 01:49:50 18° 78° (ENE) 01:55:18
POPSAT HIP 1 29 Aug 01:46:13 01:48:14 13° 298° (WNW) 01:50:04 437.405
SPROUT 29 Aug 01:48:56 01:50:08 11° 273° (W) 01:51:05 437.525
DUCHIFAT 1 29 Aug 01:49:57 01:51:44 12° 298° (WNW) 01:53:19 145.980
Gurwin Techsat 1B 29 Aug 01:52:54 01:54:38 12° 85° (E) 01:56:42 435.225
RS-15 29 Aug 01:57:36 02:09:30 90° 216° (SW) 02:21:48 29.354- 29.394
PCSat 29 Aug 02:09:19 02:13:55 30° 111° (ESE) 02:18:38 145.827
BEESAT 3 29 Aug 02:09:55 02:12:01 14° 249° (WSW) 02:13:56 437.485
JAS-2 29 Aug 02:10:46 02:12:15 11° 77° (ENE) 02:14:14 435.910
BUGSAT 1 29 Aug 02:12:52 02:14:01 11° 299° (WNW) 02:14:57 437.445
BEESAT 2 29 Aug 02:16:40 02:19:08 15° 249° (WSW) 02:21:27 435.950
BEESAT 29 Aug 02:18:36 02:23:15 51° 260° (W) 02:27:55 436.000
ITAMSAT 1 29 Aug 02:28:35 02:32:22 21° 91° (E) 02:36:18 435.822/435.867
AIST 2 29 Aug 02:28:50 02:32:56 53° 240° (WSW) 02:36:56 435.215
Cosmos 2504 29 Aug 02:29:22 02:34:30 17° 305° (NW) 02:39:20 435.465 / 435.565
CUSAT 1 29 Aug 02:34:06 02:35:26 11° 307° (NW) 02:36:37 437.405
STARS 29 Aug 02:36:09 02:39:49 27° 67° (ENE) 02:43:33 437.465
DANDE 29 Aug 02:37:06 02:38:53 13° 303° (WNW) 02:40:42 436.750
SWISSCUBE 29 Aug 02:44:53 02:48:56 27° 266° (W) 02:52:56 437.505
KKS-1 29 Aug 02:45:41 02:50:01 54° 72° (ENE) 02:54:25 437.445
Cosmos 2499 29 Aug 02:57:54 03:00:47 13° 73° (ENE) 03:04:22 435.465 / 435.565
Oscar 19 29 Aug 03:15:40 03:20:34 41° 291° (WNW) 03:25:23 437.125/150
SO-50 29 Aug 03:19:10 03:23:43 39° 314° (NW) 03:28:21 436.795
ITUPSAT 1 29 Aug 03:23:52 03:26:16 13° 272° (W) 03:28:25 437.325
AO-7 29 Aug 03:27:46 03:33:04 19° 88° (E) 03:38:47 29.400- 29.500
Gurwin Techsat 1B 29 Aug 03:30:08 03:35:29 90° 84° (E) 03:40:49 435.225
GONETS M04 29 Aug 03:36:49 03:45:30 85° 97° (E) 03:54:16
HORYU 2 29 Aug 03:47:49 03:50:08 14° 89° (E) 03:52:39 437.375
JAS-2 29 Aug 03:51:52 03:59:08 68° 100° (E) 04:05:31 435.910
PCSat 29 Aug 03:52:01 03:57:11 44° 309° (NW) 04:02:23 145.827
ITAMSAT 1 29 Aug 04:07:12 04:12:14 52° 290° (WNW) 04:17:15 435.822/435.867
MOZHAYETS 4 29 Aug 04:11:02 04:15:35 60° 74° (ENE) 04:20:08
RS-15 29 Aug 04:11:26 04:20:46 26° 256° (WSW) 04:29:45 29.354- 29.394
STARS 29 Aug 04:12:12 04:16:10 32° 264° (W) 04:20:08 437.465
KKS-1 29 Aug 04:24:15 04:27:03 16° 270° (W) 04:29:41 437.445
Cosmos 2499 29 Aug 04:44:04 04:52:18 65° 93° (E) 05:01:02 435.465 / 435.565
SO-50 29 Aug 05:04:14 05:05:42 11° 337° (NNW) 05:07:02 436.795
Gurwin Techsat 1B 29 Aug 05:11:58 05:14:48 14° 301° (WNW) 05:17:24 435.225
O/OREOS (USA 219) 29 Aug 05:12:14 05:16:44 50° 62° (ENE) 05:21:13 437.305
AO-7 29 Aug 05:18:47 05:27:10 88° 111° (ESE) 05:35:27 29.400- 29.500
HORYU 2 29 Aug 05:22:49 05:27:14 59° 287° (WNW) 05:31:36 437.375
VERMONT LUNAR 29 Aug 05:31:49 05:34:09 21° 161° (SSE) 05:36:31 437.305
GONETS M04 29 Aug 05:37:02 05:43:40 23° 300° (WNW) 05:50:02
JAS-2 29 Aug 05:37:40 05:43:32 26° 301° (WNW) 05:48:47 435.910
PCSat 29 Aug 05:40:19 05:42:08 11° 332° (NNW) 05:43:48 145.827
MOZHAYETS 4 29 Aug 05:50:30 05:53:16 15° 272° (W) 05:55:50
CUBESAT XI-V 29 Aug 05:56:02 06:00:35 65° 74° (ENE) 06:05:09 437.345
STRAND 1 29 Aug 06:08:17 06:12:33 28° 66° (ENE) 06:16:55 437.568
CUTE-I 29 Aug 06:08:43 06:12:12 18° 89° (E) 06:15:53 437.470
PRISM 29 Aug 06:09:23 06:11:58 17° 65° (ENE) 06:14:42 437.425
Cosmos 2499 29 Aug 06:38:45 06:46:12 32° 295° (WNW) 06:53:46 435.465 / 435.565
O/OREOS (USA 219) 29 Aug 06:52:36 06:55:49 18° 259° (WSW) 06:58:52 437.305
PHONESAT 2.4 29 Aug 06:53:12 06:55:01 14° 153° (SSE) 06:56:53 2401.200-2431.200
Cubesat XI-IV 29 Aug 07:01:33 07:06:46 53° 100° (E) 07:11:59 437.490
YUBILEINY 29 Aug 07:02:59 07:09:09 21° 58° (ENE) 07:15:40 435.215
VERMONT LUNAR 29 Aug 07:07:25 07:10:14 40° 178° (S) 07:13:04 437.305
AO-7 29 Aug 07:12:43 07:19:04 24° 308° (NW) 07:25:11 29.400- 29.500
CUBESAT XI-V 29 Aug 07:36:09 07:38:33 14° 272° (W) 07:40:45 437.345
AIST 1 29 Aug 07:42:38 07:45:08 16° 87° (E) 07:47:48
PRISM 29 Aug 07:43:08 07:47:06 45° 261° (W) 07:51:03 437.425
STRAND 1 29 Aug 07:46:53 07:51:38 38° 263° (W) 07:56:24 437.568
CUTE-I 29 Aug 07:47:31 07:52:47 62° 288° (WNW) 07:58:02 437.470
Cosmos 2491 29 Aug 07:54:21 07:59:14 17° 77° (ENE) 08:04:38 435.465 / 435.565
HO-68 29 Aug 07:56:42 08:00:11 14° 85° (E) 08:04:06 435.675
BRITE-PL 29 Aug 07:57:32 08:02:34 39° 96° (E) 08:07:51 437.365/2234.400
CANX-2 29 Aug 08:14:27 08:16:00 12° 87° (E) 08:17:47 2200.000
PHONESAT 2.4 29 Aug 08:29:14 08:32:23 35° 168° (SSE) 08:35:32 2401.200-2431.200
SO-50 29 Aug 08:29:35 08:31:35 12° 26° (NNE) 08:33:41 436.795
SEEDS 29 Aug 08:40:31 08:43:10 17° 90° (E) 08:45:55 437.485
GOMX 1 29 Aug 08:41:55 08:47:15 59° 99° (E) 08:52:41 467.674
CINEMA 3 29 Aug 08:42:02 08:45:07 17° 88° (E) 08:48:22 145.822/145.860
Cubesat XI-IV 29 Aug 08:42:25 08:46:33 23° 297° (WNW) 08:50:34 437.490
VERMONT LUNAR 29 Aug 08:43:44 08:46:23 29° 194° (SSW) 08:49:03 437.305
YUBILEINY 29 Aug 08:58:35 09:07:30 89° 88° (E) 09:16:19 435.215
COMPASS 1 29 Aug 09:06:54 09:10:20 25° 94° (E) 09:13:47 437.405
DOVE 4 29 Aug 09:10:17 09:15:35 67° 100° (E) 09:20:52 437.250
ISS 29 Aug 09:10:33 09:11:40 11° 132° (SE) 09:12:52 145.825
UNISAT 6 29 Aug 09:17:01 09:19:51 17° 63° (ENE) 09:22:53 437.425
AIST 1 29 Aug 09:18:21 09:22:26 45° 283° (WNW) 09:26:33
AAUSAT CUBESAT 2 29 Aug 09:19:40 09:23:16 29° 95° (E) 09:26:53 437.432
CUTE 1.7 + AOD 2 29 Aug 09:34:38 09:38:54 82° 101° (E) 09:43:07 437.475
BRITE-PL 29 Aug 09:36:12 09:40:59 33° 292° (WNW) 09:45:54 437.365/2234.400
CUSAT 1 29 Aug 09:39:09 09:43:30 17° 58° (ENE) 09:48:32 437.405
HO-68 29 Aug 09:41:57 09:49:12 80° 105° (ESE) 09:56:25 435.675
TIGRISAT 29 Aug 09:45:30 09:49:28 29° 67° (ENE) 09:53:32 435.000
Cosmos 2491 29 Aug 09:46:12 09:54:54 84° 97° (E) 10:03:40 435.465 / 435.565
DANDE 29 Aug 09:46:14 09:48:59 13° 57° (ENE) 09:52:24 436.750
QB50P2 29 Aug 09:46:27 09:47:36 11° 61° (ENE) 09:48:59 145.880/145.840
CANX-2 29 Aug 09:48:14 09:52:27 63° 286° (WNW) 09:56:36 2200.000
NANOSAT C BR1 29 Aug 09:49:41 09:50:59 11° 61° (ENE) 09:52:29 145.865
AUBIESAT-1 29 Aug 09:53:25 09:57:57 47° 67° (ENE) 10:02:28 437.475
M-CUBED/EXP-1 PRIME 29 Aug 09:55:36 10:00:18 58° 68° (ENE) 10:05:00 437.505
ANTELSAT 29 Aug 10:00:50 10:05:12 41° 70° (ENE) 10:09:40 437.575/2403.000
QB50P1 29 Aug 10:00:52 10:03:16 15° 63° (ENE) 10:05:49 145.935-145.965
Oscar 11 29 Aug 10:04:35 10:08:39 40° 97° (E) 10:12:44 145.826/435.025
DELFI C3 29 Aug 10:05:00 10:08:20 25° 94° (E) 10:11:42 145.870
PHONESAT 2.4 29 Aug 10:06:43 10:09:58 43° 185° (S) 10:13:13 2401.200-2431.200
SO-50 29 Aug 10:08:38 10:13:25 46° 48° (NE) 10:18:07 436.795
SEEDS 29 Aug 10:15:12 10:19:14 44° 288° (WNW) 10:23:11 437.485
HUMSAT D 29 Aug 10:16:03 10:18:11 14° 88° (E) 10:20:29 437.325/437.525
Cosmos 2504 29 Aug 10:17:17 10:25:21 44° 71° (ENE) 10:33:07 435.465 / 435.565
CINEMA 3 29 Aug 10:17:48 10:22:49 63° 286° (WNW) 10:27:41 145.822/145.860
GOMX 1 29 Aug 10:20:52 10:24:59 22° 296° (WNW) 10:29:02 467.674
CUBEBUG 2 29 Aug 10:27:58 10:32:44 81° 102° (ESE) 10:37:21 437.445
ZACube-1 29 Aug 10:40:58 10:45:31 66° 101° (E) 10:49:55 437.345
UWE-3 29 Aug 10:41:10 10:45:52 87° 107° (ESE) 10:50:24 435.000/436.395/437.385
COMPASS 1 29 Aug 10:42:21 10:46:00 29° 291° (WNW) 10:49:34 437.405
ISS 29 Aug 10:44:22 10:47:37 85° 148° (SSE) 10:50:53 145.825
FUNcube-1 29 Aug 10:47:45 10:52:18 76° 102° (ESE) 10:56:42 145.935
DOVE 4 29 Aug 10:49:07 10:52:50 19° 297° (WNW) 10:56:24 437.250
UNISAT 6 29 Aug 10:51:32 10:56:10 63° 260° (W) 11:00:52 437.425
PCSat 29 Aug 10:54:58 10:59:57 36° 48° (NE) 11:04:58 145.827
AAUSAT CUBESAT 2 29 Aug 10:55:20 10:58:47 25° 292° (WNW) 11:02:10 437.432
YUBILEINY 29 Aug 10:57:13 11:03:15 20° 282° (WNW) 11:08:50 435.215
POLYITAN 1 29 Aug 10:58:42 11:02:54 60° 73° (ENE) 11:07:10 437.675
POPSAT HIP 1 29 Aug 11:02:29 11:06:41 64° 74° (ENE) 11:10:56 437.405
50 SAT 29 Aug 11:04:51 11:07:34 19° 92° (E) 11:10:22 437.505
DUCHIFAT 1 29 Aug 11:05:36 11:09:47 67° 74° (ENE) 11:14:02 145.980
CUTE 1.7 + AOD 2 29 Aug 11:13:04 11:14:14 11° 299° (WNW) 11:15:10 437.475
ESTCUBE 1 29 Aug 11:15:04 11:17:56 17° 90° (E) 11:20:57 437.505/2401.250
QB50P2 29 Aug 11:18:38 11:22:54 82° 259° (W) 11:27:12 145.880/145.840
CUSAT 1 29 Aug 11:19:50 11:27:16 71° 77° (ENE) 11:35:32 437.405
TIGRISAT 29 Aug 11:21:53 11:26:06 33° 265° (W) 11:30:22 435.000
NANOSAT C BR1 29 Aug 11:22:00 11:26:14 79° 257° (WSW) 11:30:31 145.865
BUGSAT 1 29 Aug 11:26:09 11:30:10 70° 75° (ENE) 11:34:17 437.445
DANDE 29 Aug 11:26:27 11:33:28 58° 75° (ENE) 11:41:44 436.750
DX 1 29 Aug 11:27:42 11:31:55 45° 99° (E) 11:36:09 434.975-435.025
AUBIESAT-1 29 Aug 11:29:07 11:32:50 22° 263° (W) 11:36:26 437.475
HO-68 29 Aug 11:30:46 11:36:15 23° 304° (NW) 11:41:32 435.675
M-CUBED/EXP-1 PRIME 29 Aug 11:32:01 11:35:23 18° 265° (W) 11:38:38 437.505
QB50P1 29 Aug 11:34:32 11:38:42 56° 260° (W) 11:42:55 145.935-145.965
AISAT 29 Aug 11:38:06 11:42:18 39° 98° (E) 11:46:31 437.250
ANTELSAT 29 Aug 11:38:25 11:42:10 23° 268° (W) 11:45:50 437.575/2403.000
DELFI C3 29 Aug 11:39:58 11:43:21 26° 291° (WNW) 11:46:41 145.870
Oscar 11 29 Aug 11:41:21 11:44:36 21° 294° (WNW) 11:47:45 145.826/435.025
PHONESAT 2.4 29 Aug 11:44:45 11:47:28 22° 201° (SSW) 11:50:10 2401.200-2431.200
UKube-1 29 Aug 11:44:50 11:49:09 63° 101° (E) 11:53:28 .
Cosmos 2491 29 Aug 11:46:22 11:53:05 23° 300° (WNW) 11:59:29 435.465 / 435.565
CUBEBUG 1 29 Aug 11:47:49 11:51:42 30° 95° (E) 11:55:37 437.445
SO-50 29 Aug 11:49:37 11:53:46 27° 246° (WSW) 11:57:44 436.795
HUMSAT D 29 Aug 11:50:08 11:54:21 56° 286° (WNW) 11:58:26 437.325/437.525
SPROUT 29 Aug 11:56:27 11:57:50 12° 87° (E) 11:59:28 437.525
CUBEBUG 2 29 Aug 12:06:30 12:08:47 13° 299° (WNW) 12:10:51 437.445
VELOX 1 29 Aug 12:07:01 12:11:30 76° 103° (ESE) 12:15:57 145.980
Cosmos 2504 29 Aug 12:09:39 12:17:37 44° 272° (W) 12:25:07 435.465 / 435.565
ZACube-1 29 Aug 12:18:46 12:21:21 15° 298° (WNW) 12:23:45 437.345
UWE-3 29 Aug 12:19:51 12:21:42 12° 300° (WNW) 12:23:19 435.000/436.395/437.385
ISS 29 Aug 12:21:30 12:24:18 26° 347° (NNW) 12:27:07 145.825
FUNcube-1 29 Aug 12:25:51 12:28:01 13° 299° (WNW) 12:29:59 145.935
POLYITAN 1 29 Aug 12:37:06 12:39:16 13° 272° (W) 12:41:13 437.675
PCSat 29 Aug 12:38:24 12:43:25 38° 248° (WSW) 12:48:22 145.827
50 SAT 29 Aug 12:38:40 12:42:14 34° 289° (WNW) 12:45:43 437.505
POPSAT HIP 1 29 Aug 12:41:13 12:43:03 12° 272° (W) 12:44:41 437.405
DUCHIFAT 1 29 Aug 12:44:32 12:46:08 12° 273° (W) 12:47:30 145.980
ESTCUBE 1 29 Aug 12:50:46 12:55:08 50° 288° (WNW) 12:59:29 437.505/2401.250
Oscar 19 29 Aug 12:54:49 12:59:42 45° 70° (ENE) 13:04:40 437.125/150
CUSAT 1 29 Aug 13:03:14 13:09:27 28° 272° (W) 13:15:54 437.405
DX 1 29 Aug 13:04:42 13:07:52 19° 296° (WNW) 13:10:56 434.975-435.025
BUGSAT 1 29 Aug 13:05:42 13:06:14 10° 273° (W) 13:06:30 437.445
TISAT 1 29 Aug 13:09:37 13:13:39 40° 98° (E) 13:17:42 437.305
DANDE 29 Aug 13:10:01 13:16:27 33° 269° (W) 13:23:34 436.750
Gurwin Techsat 1B 29 Aug 13:14:25 13:18:31 24° 64° (ENE) 13:22:44 435.225
AISAT 29 Aug 13:15:07 13:18:40 23° 294° (WNW) 13:22:07 437.250
UKube-1 29 Aug 13:22:23 13:24:50 15° 298° (WNW) 13:27:08 .
CUBEBUG 1 29 Aug 13:24:12 13:28:00 28° 292° (WNW) 13:31:43 437.445
SPROUT 29 Aug 13:30:08 13:34:28 70° 285° (WNW) 13:38:46 437.525
ITUPSAT 1 29 Aug 13:43:18 13:46:11 16° 89° (E) 13:49:16 437.325
GONETS M04 29 Aug 13:45:14 13:53:36 47° 72° (ENE) 14:02:03
VELOX 1 29 Aug 13:45:24 13:47:30 13° 299° (WNW) 13:49:24 145.980
ITAMSAT 1 29 Aug 13:47:47 13:52:29 37° 68° (ENE) 13:57:15 435.822/435.867
ISS 29 Aug 13:58:46 14:01:24 22° 7° (N) 14:04:03 145.825
JAS-2 29 Aug 14:03:45 14:10:43 41° 65° (ENE) 14:17:57 435.910
BEESAT 29 Aug 14:17:17 14:21:39 35° 97° (E) 14:26:01 436.000
AO-7 29 Aug 14:28:04 14:35:11 34° 57° (ENE) 14:42:28 29.400- 29.500
Cosmos 2499 29 Aug 14:34:19 14:41:23 27° 62° (ENE) 14:48:21 435.465 / 435.565
Oscar 19 29 Aug 14:35:06 14:39:18 24° 268° (W) 14:43:26 437.125/150
SWISSCUBE 29 Aug 14:42:35 14:47:21 69° 102° (ESE) 14:52:05 437.505
TISAT 1 29 Aug 14:45:58 14:49:11 20° 294° (WNW) 14:52:18 437.305
HORYU 2 29 Aug 14:47:28 14:50:23 18° 63° (ENE) 14:53:26 437.375
Gurwin Techsat 1B 29 Aug 14:53:03 14:58:12 51° 261° (W) 15:03:23 435.225
ITUPSAT 1 29 Aug 15:19:50 15:24:32 58° 287° (WNW) 15:29:11 437.325
ITAMSAT 1 29 Aug 15:27:33 15:32:04 29° 265° (W) 15:36:33 435.822/435.867
ISS 29 Aug 15:35:05 15:38:17 54° 26° (NNE) 15:41:28 145.825
GONETS M04 29 Aug 15:42:19 15:50:26 42° 272° (W) 15:58:27
JAS-2 29 Aug 15:48:13 15:55:35 50° 264° (W) 16:03:11 435.910
BEESAT 29 Aug 15:55:20 15:59:22 27° 294° (WNW) 16:03:19 436.000
STARS 29 Aug 15:59:48 16:04:01 40° 98° (E) 16:08:13 437.465
BEESAT 3 29 Aug 16:01:25 16:05:27 71° 122° (ESE) 16:09:33 437.485
MOZHAYETS 4 29 Aug 16:06:33 16:08:23 12° 87° (E) 16:10:26
BEESAT 2 29 Aug 16:09:29 16:13:32 64° 122° (ESE) 16:17:38 435.950
KKS-1 29 Aug 16:11:32 16:16:04 90° 126° (SE) 16:20:33 437.445
AO-7 29 Aug 16:19:18 16:27:35 64° 256° (WSW) 16:35:52 29.400- 29.500
SWISSCUBE 29 Aug 16:21:52 16:24:42 15° 299° (WNW) 16:27:22 437.505
HORYU 2 29 Aug 16:22:14 16:26:39 53° 260° (W) 16:31:05 437.375
RS-15 29 Aug 16:23:04 16:33:19 51° 113° (ESE) 16:44:04 29.354- 29.394
Cosmos 2499 29 Aug 16:26:49 16:35:34 74° 265° (W) 16:43:44 435.465 / 435.565
AIST 2 29 Aug 16:28:33 16:31:48 22° 114° (ESE) 16:35:08 435.215
Cubesat XI-IV 29 Aug 16:48:01 16:50:59 16° 59° (ENE) 16:54:09 437.490
ISS 29 Aug 17:11:52 17:14:29 22° 223° (SW) 17:17:04 145.825
CUTE-I 29 Aug 17:31:40 17:36:25 35° 67° (ENE) 17:41:14 437.470
STARS 29 Aug 17:36:47 17:40:14 22° 295° (WNW) 17:43:35 437.465
BEESAT 3 29 Aug 17:41:05 17:43:51 17° 322° (NW) 17:46:33 437.485
MOZHAYETS 4 29 Aug 17:41:37 17:46:11 70° 285° (WNW) 17:50:43
BEESAT 2 29 Aug 17:49:03 17:52:00 18° 321° (NW) 17:54:52 435.950
KKS-1 29 Aug 17:50:38 17:52:03 11° 300° (WNW) 17:53:16 437.445
CUBESAT XI-V 29 Aug 17:52:31 17:55:00 15° 88° (E) 17:57:42 437.345
AIST 2 29 Aug 18:06:04 18:10:08 43° 311° (NW) 18:14:13 435.215
AO-7 29 Aug 18:19:28 18:22:20 11° 278° (W) 18:24:29 29.400- 29.500
Cosmos 2499 29 Aug 18:22:41 18:27:15 15° 285° (WNW) 18:31:10 435.465 / 435.565
Cubesat XI-IV 29 Aug 18:25:09 18:30:29 82° 256° (WSW) 18:35:51 437.490
HO-68 29 Aug 18:28:18 18:32:04 16° 51° (NE) 18:36:09 435.675
RS-15 29 Aug 18:34:58 18:45:45 55° 317° (NW) 18:57:00 29.354- 29.394
CANX-2 29 Aug 19:09:27 19:11:03 12° 62° (ENE) 19:12:50 2200.000
BRITE-PL 29 Aug 19:10:32 19:14:38 42° 70° (ENE) 19:19:02 437.365/2234.400
CUTE-I 29 Aug 19:11:44 19:16:31 33° 265° (W) 19:21:16 437.470
AIST 1 29 Aug 19:23:33 19:27:44 48° 77° (ENE) 19:31:57
PRISM 29 Aug 19:24:12 19:27:15 20° 93° (E) 19:30:23 437.425
O/OREOS (USA 219) 29 Aug 19:26:00 19:30:15 42° 107° (ESE) 19:34:36 437.305
CUBESAT XI-V 29 Aug 19:28:20 19:32:55 61° 287° (WNW) 19:37:31 437.345
SEEDS 29 Aug 19:34:27 19:36:57 16° 64° (ENE) 19:39:35 437.485
CINEMA 3 29 Aug 19:45:23 19:48:30 18° 63° (ENE) 19:51:50 145.822/145.860
GOMX 1 29 Aug 19:51:48 19:56:13 67° 74° (ENE) 20:01:00 467.674
Cosmos 2491 29 Aug 19:54:46 20:03:04 46° 72° (ENE) 20:11:26 435.465 / 435.565
CUBEBUG 2 29 Aug 19:54:57 19:55:47 11° 59° (ENE) 19:56:53 437.445
STRAND 1 29 Aug 19:55:18 20:00:23 63° 101° (E) 20:05:27 437.568
COMPASS 1 29 Aug 19:59:43 20:02:56 22° 67° (ENE) 20:06:15 437.405
UWE-3 29 Aug 20:06:57 20:07:58 11° 59° (ENE) 20:09:14 435.000/436.395/437.385
YUBILEINY 29 Aug 20:07:46 20:13:40 21° 79° (E) 20:19:58 435.215
Cubesat XI-IV 29 Aug 20:10:23 20:11:33 10° 275° (W) 20:12:21 437.490
HO-68 29 Aug 20:11:35 20:18:40 69° 70° (ENE) 20:25:50 435.675
AAUSAT CUBESAT 2 29 Aug 20:11:55 20:15:20 25° 68° (ENE) 20:18:48 437.432
DOVE 4 29 Aug 20:17:17 20:21:49 74° 75° (ENE) 20:26:42 437.250
CUTE 1.7 + AOD 2 29 Aug 20:28:32 20:32:48 70° 76° (ENE) 20:37:06 437.475
CANX-2 29 Aug 20:42:08 20:46:26 75° 258° (WSW) 20:50:45 2200.000
BRITE-PL 29 Aug 20:50:20 20:53:30 19° 271° (W) 20:56:42 437.365/2234.400
RS-15 29 Aug 20:52:11 21:01:30 28° 349° (N) 21:11:06 29.354- 29.394
DELFI C3 29 Aug 20:53:48 20:56:48 21° 67° (ENE) 20:59:52 145.870
PRISM 29 Aug 20:59:02 21:02:49 35° 290° (WNW) 21:06:32 437.425
Oscar 11 29 Aug 21:00:40 21:04:42 38° 71° (ENE) 21:08:45 145.826/435.025
AIST 1 29 Aug 21:02:25 21:05:02 15° 274° (W) 21:07:29
O/OREOS (USA 219) 29 Aug 21:06:13 21:09:54 23° 307° (NW) 21:13:32 437.305
SEEDS 29 Aug 21:08:11 21:12:21 54° 260° (W) 21:16:33 437.485
HUMSAT D 29 Aug 21:09:41 21:11:45 14° 63° (ENE) 21:14:01 437.325/437.525
CINEMA 3 29 Aug 21:20:38 21:25:13 58° 261° (W) 21:30:03 145.822/145.860
